sat.trackr.live / text

‹ back to catalog

TIANHUI 2-02B

NORAD 49072 · 2021-074B

PAYLOAD ACTIVE UNKNOWN

§ Identity

Operator
Country
PRC
Launch date
2021-08-18
Launch site
TAISC
Launch vehicle
Mass (kg)
RCS (m²)

External: N2YO · Heavens-Above · Gunter

§ Orbital elements

Epoch: 2026-09-20T14:12:31.273632Z

Period
94.94 min
Inclination
97.4862°
Eccentricity
0.0002010
Mean motion
15.16737182 rev/d
Perigee alt
514.3 km
Apogee alt
517.1 km
Semi-major
6,893.8 km
B*
5.7936e-5
RAAN
265.5815°
Arg perigee
90.4512°
Mean anomaly
269.6952°
Rev number
28,173

§ Raw data

TIANHUI 2-02B1 49072U 21074B   26263.59202863  .00001069  00000+0  57936-4 0  99992 49072  97.4862 265.5815 0002010  90.4512 269.6952 15.16737182281737

JSON: /api/v1/satellites/49072 · /tle

For live sub-satellite position, see the globe view (requires WebGL).

§ Visibility from observer

Set your observer location to see the next 7 days of passes ≥ 10°. The values pass through the URL so the page stays shareable.

No JS? Fill the form by hand. The geolocation button needs JavaScript.